Regional Weather Roundup
Issued by NWS Grand Forks, ND

Home | Current Version | Previous Version | Graphics & Text | Print | Product List | Glossary On
Versions: 1 2 3 4 5 6 7 8 9 10 11 12 13 14 15 16 17 18 19 20 21 22 23 24 25 26 27 28 29 30 31 32 33 34 35 36 37 38 39 40 41 42 43 44 45 46 47 48 49 50
000
ASUS43 KFGF 231010
RWRFGF
PRAIRIE TO PINES  WEATHER ROUNDUP
NATIONAL WEATHER SERVICE EASTERN NORTH DAKOTA/GRAND FORKS ND
500 AM CDT SAT MAY 23 2015

 **SATELLITE DATA USED TO AUGMENT SKY COVER AT AUTOMATED STATIONS**
 *****  WEATHER ACROSS EASTERN NORTH DAKOTA  *****

CITY           SKY/WX    TMP DP  RH WIND       PRES   REMARKS
GRAND FORKS    CLEAR     48  40  73 SE8       30.13S
GRAND FRKS AFB CLEAR     45  39  82 S2        30.13S
GRAND FRKS NWS   N/A     48 N/A N/A SE5         N/A
DEVILS LAKE    CLEAR     50  37  62 CALM      30.12S
FARGO          CLEAR     52  45  77 S7        30.16R
WAHPETON ARPT  SUNNY     48  37  66 S5        30.20R
$$

 ***** WEATHER ACROSS CENTRAL AND WESTERN NORTH DAKOTA  *****

CITY           SKY/WX    TMP DP  RH WIND       PRES   REMARKS
BISMARCK       PTCLDY    43  40  89 SE6       30.16S
MINOT          PTCLDY    55  38  52 SW10      30.10S
JAMESTOWN      PTCLDY    53  43  68 SW10      30.16R
MINOT AFB      PTCLDY    55  40  56 W5        30.09S
GARRISON         N/A     46  40  79 CALM      30.13R
WILLISTON      CLEAR     46  38  73 NE5       30.11R
DICKINSON      PTCLDY    40  36  86 E7        30.09R
HETTINGER      CLEAR     41  38  89 E8        30.11R
$$

 *****  OTHER AIRPORT OBSERVATIONS IN OUR AREA  *****

CITY           SKY/WX    TMP DP  RH WIND       PRES   REMARKS
WALHALLA       FAIR      57  34  41 SW3       30.12R
GRAFTON AIRPOR FAIR      45  45 100 S6        30.13S
VALLEY CITY AR FAIR      52  46  82 SW15      30.16S
CANDO          FAIR      46  37  71 CALM      30.13S
CAVALIER APRT  FAIR      54  37  54 SW6       30.12S
GWINNER        NOT AVBL
SHEYENNE NWR     N/A     49  45  85 W5        29.95S
ROLLA          FAIR      48  37  66 SW13      30.13S
 ***** THE ABOVE OBSERVATIONS ARE NON NWS ARE NOT QUALITY
       CONTROLLED AND MAY MIS-REPORT RAIN FOR SNOW...
$$

  *****  WEATHER ACROSS NORTHERN MINNESOTA  *****

CITY           SKY/WX    TMP DP  RH WIND       PRES   REMARKS
FLAG ISLAND    MOCLDY    61  41  48 W10       30.09R
WARROAD        PTCLDY    54  43  66 SW6       30.13S
ROSEAU         PTCLDY    54  41  62 SW7       30.13S
HALLOCK        CLEAR     46  43  87 S9        30.12S
THF RVR FALLS  CLEAR     52  36  54 S7        30.16S
BAUDETTE       PTCLDY    51  39  63 SW7       30.12S
WASKISH        CLEAR     48  43  81 CALM      30.16S
CROOKSTON      CLEAR     46  39  76 S8        30.16S
STEPHEN NDAWN    N/A     54  41  62 S8          N/A
GREENBUSH NDAW   N/A     52  43  71 S3          N/A
$$
  *****  WEATHER ACROSS CENTRAL AND WEST MINNESOTA  *****

CITY           SKY/WX    TMP DP  RH WIND       PRES   REMARKS
FOSSTON        CLEAR     48  37  66 S6        30.18S
BEMIDJI        CLEAR     49  41  72 SW3       30.18S
PARK RAPIDS    CLEAR     48  39  71 CALM      30.19S
ELBOW LAKE     FAIR      50  45  82 CALM      30.20S
WADENA         CLEAR     48  39  71 SW7       30.20R
DETROIT LAKES  CLEAR     50  43  76 S3        30.20R
MOORHEAD       CLEAR     50  45  81 S7        30.18R
FERGUS FALLS   CLEAR     52  43  71 CALM      30.21S
MORRIS MN      CLEAR     46  43  87 SE5       30.21R
STAPLES        CLEAR     43  39  87 CALM      30.20S
$$
  *****  WEATHER ELSEWHERE ACROSS MINNESOTA  *****

CITY           SKY/WX    TMP DP  RH WIND       PRES   REMARKS
DULUTH         CLEAR     55  35  47 W8        30.20S
INTRNTL FALLS  CLEAR     46  37  71 SW6       30.14R
ELY            CLEAR     50  36  57 CALM      30.17R
CLOQUET        CLEAR     54  34  47 SW8       30.21S
WHEATON        CLEAR     45  39  81 S5        30.23R
BRAINERD       CLEAR     41  39  93 CALM      30.21S
HIBBING        CLEAR     36  33  89 S3        30.18S
ALEXANDRIA     CLEAR     48  42  80 SW5       30.22S
SAINT CLOUD    CLEAR     43  42  97 CALM      30.21S
MINNEAPOLIS    MOCLDY    52  41  66 CALM      30.22S
$$

  *****  WEATHER ACROSS SOUTH DAKOTA  *****

CITY           SKY/WX    TMP DP  RH WIND       PRES   REMARKS
SIOUX FALLS    CLOUDY    57  45  64 SE8       30.19S
BROOKINGS      CLOUDY    52  46  82 CALM      30.22S
WATERTOWN      MOCLDY    50  43  77 CALM      30.20F
HURON          CLOUDY    51  47  86 SE5       30.19S
SISSETON         N/A     53  40  61 N3        30.19R
ABERDEEN       PTCLDY    43  40  89 SE6       30.19S
MITCHELL       CLOUDY    53  49  86 E7        30.18F
PIERRE         CLOUDY    49  44  83 E6        30.13R
MOBRIDGE       CLEAR     45  42  89 E9        30.13R
RAPID CITY     CLOUDY    48  44  86 S9        30.06S
$$

  *****  SOME WEATHER IN NEARBY STATES *****

CITY           SKY/WX    TMP DP  RH WIND       PRES   REMARKS
GLASGOW MT     MOCLDY    55  42  61 E12       30.03S
GREAT FALLS MT PTCLDY    50  43  77 E8        30.00R
CHEYENNE WY    CLOUDY    43  42  97 S9        30.05S FOG
SCOTTSBLUFF NE CLOUDY    46  45  96 E8        30.04F FOG
OMAHA NE       CLOUDY    59  50  72 S5        30.20R
DES MOINES IA  CLOUDY    58  48  69 SE6       30.24S
DAVENPORT IA   PTCLDY    58  42  55 SE10      30.27R
CHICAGO IL     PTCLDY    50  37  61 S3        30.30R
EAU CLAIRE WI  CLEAR     41  39  93 CALM      30.23S
LA CROSSE WI   CLEAR     49  43  80 SE8       30.25R
$$

  *****  SOME NATIONAL WEATHER *****

CITY           SKY/WX    TMP DP  RH WIND       PRES   REMARKS
LA GUARDIA NY  CLEAR     50  29  44 NW16G23   30.32R
RALEIGH NC     PTCLDY    49  47  93 CALM      30.35R
ATLANTA GA     CLEAR     61  52  72 E5        30.30R
NEW ORLEANS LA PTCLDY    72  67  84 CALM      30.16R
OKLAHOMA CITY  CLOUDY    59  58  96 SE10      30.11S FOG
ALBUQUERQUE NM PTCLDY    52  30  43 E3        30.01R
SALT LAKE CITY LGT RAIN  50  48  93 SE7       29.92S
LOS ANGELES CA PTCLDY    58  53  84 W7        30.06S
BOISE ID       MOCLDY    55  50  83 N5        29.89R
SEATTLE WA     CLOUDY    54  49  83 S6        30.11R
$$

*** WEATHER ACROSS MANITOBA...SASKATCHEWAN AND ONTARIO ***
                ***ONTARIO***

CITY           SKY/WX    TMP DP  RH WIND       PRES   REMARKS
GERALDTON      PTCLDY    43  25  49 S7        29.98F
THUNDER BAY    PTCLDY    34  30  86 NW5       30.08F
SIOUX LOOKOUT  PTCLDY    59  39  47 W6        30.04R
TORONTO        CLEAR     36  27  69 W5        30.37R
BIG TROUT LK   CLOUDY    46  39  76 N12G18    29.93R
PICKLE LAKE    NOT AVBL
DRYDEN         CLOUDY    59  39  47 W12       30.06S
KENORA         PTCLDY    55  39  54 SW7       30.09S
$$
                *** MANITOBA***

CITY           SKY/WX    TMP DP  RH WIND       PRES   REMARKS
BRANDON        PTCLDY    45  36  70 NW5       30.11R
DAUPHIN        CLEAR     57  34  41 SW6       30.04S
ISLAND LAKE    PTCLDY    46  39  76 N6        30.02R
PILOT MOUND      N/A     41  36  81 S6          N/A
THE PAS        PTCLDY    46  37  71 CALM      29.97R
THOMPSON       MOCLDY    37  34  87 NE13      30.12R
WINNIPEG       PTCLDY    61  34  36 SW12      30.09R
LYNN LAKE      CLEAR     36  32  87 NE9       30.18R
CHURCHILL      PTCLDY    30  27  86 N12       30.16S WCI  21
$$
                ***SASKATCHEWAN***

CITY           SKY/WX    TMP DP  RH WIND       PRES   REMARKS
ESTEVAN        MOCLDY    54  41  62 S6        30.11S
KINDERSLEY     PTCLDY    48  28  46 SW3       30.08R
LLOYDMINSTER   CLEAR     54  27  35 S8        30.06R
PRINCE ALBERT  MOCLDY    45  39  81 VRB2      30.04R
REGINA         PTCLDY    48  37  66 E9        30.10R
YORKTON        CLEAR     46  39  76 VRB2      30.08R
N. BATTLEFORD  CLEAR     43  34  70 N5        30.09R
LA RONGE       PTCLDY    54  41  62 NE9G17    30.08R
SASKATOON      PTCLDY    46  37  71 VRB2      30.08R
SWIFT CURRENT  CLEAR     48  34  57 SE6       30.08R
$$
NOTE: THESE ARE AUTOMATED STATIONS WITH LIMITED QUALITY CONTROL
      "FAIR" INDICATES FEW OR NO CLOUDS BELOW 12,000 FEET WITH NO
      SIGNIFICANT WEATHER AND/OR OBSTRUCTIONS TO VISIBILITY.
      SKY/WX - SKY CONDITION AND SIGNIFICANT WEATHER.
      TMP - AIR TEMPERATURE.    DP   - DEWPOINT TEMPERATURE.
      RH  - RELATIVE HUMIDITY.  PRES - PRESSURE.
      HX  - HEAT INDEX.         WCI  - WIND CHILL INDEX.
$


USA.gov is the U.S. government's official web portal to all federal, state and local government web resources and services.